Location: Calberlah
(52.4230°N, 10.6240°E)
Time: 05:57:40
(UTC+00:00)

Cosmos 1500 Rocket - Pass Details

Date: 19 May 2025
Orbit: 598 x 623 km, 82.5° (Epoch: 14 June)

Event Time Altitude Azimuth Distance (km) Brightness Sun altitude
Rises 22:45:18 0° 347° (NNW) 2,879 8.7 -17.3°
Reaches altitude 10° 22:47:31 10° 345° (NNW) 1,974 7.4 -17.4°
Maximum altitude 22:51:52 70° 262° (W) 656 3.6 -17.4°
Enters shadow 22:53:36 35° 189° (S) 994 4.1 -17.5°
